Flag for Brazil Weather past 2 weeks in Rio Branco, Acre, Brazil

Now
79 °F

Clear.


Feels Like: 81 °F
Forecast: 67 / 86 °F
Wind: No wind

Location: Rio Branco Airport

Current Time: Oct 20, 2014 at 4:48:54 AM

Latest Report: Oct 20, 2014 at 4:00 AM


Visibility: 10 mi

Pressure: 29.86 "Hg

Humidity: 70%

Dew point: 68 °F

Location of Rio BrancoLocation

Historic Weather in Rio Branco — Graph

°F

Rio Branco temperature yesterday

Maximum temperature yesterday: 82 °F (at 9:00 AM)
Minimum temperature yesterday: 72 °F (at 5:00 AM)
Average temperature yesterday: 78 °F

Past Weeks' High & Low Weather Summary

 TemperatureHumidityPressure
High93 °F (Oct 18, 1:00 PM)100% (Oct 5, 7:00 AM)30.04 "Hg (Oct 5, 7:00 AM)
Low66 °F (Oct 16, 5:00 AM)39% (Oct 18, 1:00 PM)29.74 "Hg (Oct 8, 4:00 PM)
Average78 °F77%29.88 "Hg
* Reported Oct 5 4:00 AM — Oct 20 4:00 AM, Rio Branco, Weather by CustomWeather, © 2014

Note: Actual official high and low records may vary slightly from our data, if they occured in-between our weather recording intervals... More about our weather records

Advertising

Rio Branco weather history for previous 24 hours

 ConditionsComfort  
Time TempWeatherWind HumidityBarometerVisibility
4:00 AM
Oct 20
79 °FClear.No wind70%29.86 "Hg10 mi
3:00 AM70 °FClear.No wind94%29.86 "Hg10 mi
2:00 AM70 °FClear.No wind100%29.86 "Hg10 mi
1:00 AM72 °FClear.No wind88%29.89 "Hg10 mi
12:00 AM72 °FClear.No wind88%29.89 "Hg10 mi
10:00 PM
Oct 19
72 °FClear.No wind88%29.92 "Hg10 mi
9:00 PM72 °FClear.2 mph88%29.89 "Hg10 mi
8:00 PM73 °FClear.3 mph83%29.86 "Hg10 mi
7:00 PM81 °FClear.8 mph74%29.86 "Hg10 mi
6:00 PM81 °FSunny.3 mph74%29.92 "Hg10 mi
5:00 PM81 °FPartly sunny.No wind74%29.83 "HgN/A
4:00 PM81 °FBroken clouds.8 mph74%29.83 "HgN/A
3:00 PM81 °FScattered showers. Broken clouds.8 mph74%N/AN/A
2:00 PM81 °FBroken clouds.8 mph74%29.92 "HgN/A
1:00 PM81 °FThunderstorms. Broken clouds.9 mph74%29.92 "HgN/A
12:00 PM81 °FThunderstorms. Partly sunny.10 mph74%29.92 "HgN/A
11:00 AM81 °FBroken clouds.10 mph74%29.92 "HgN/A
10:00 AM82 °FPartly sunny.6 mph66%29.95 "HgN/A
9:00 AM82 °FBroken clouds.12 mph66%29.95 "HgN/A
8:00 AM81 °FPartly sunny.12 mph70%29.95 "HgN/A
7:00 AM77 °FPassing clouds.5 mph79%29.92 "HgN/A
6:00 AM73 °FClear.3 mph83%29.89 "Hg10 mi
5:00 AM72 °FClear.6 mph88%29.86 "Hg10 mi
4:00 AM73 °FPassing clouds.6 mph83%29.83 "HgN/A
Weather by CustomWeather, © 2014

See weather overviewHow to use our weather pages